This is the latest recevied weather packets stored in our database for station/object W1HS. If no packets are shown the sender has not sent any weather packets the latest 10 day(s).
| Time | Temp. | Humidity | Pressure | Rain* | Wind** | Luminosity | Snow |
|---|---|---|---|---|---|---|---|
| 1777809621 | 3.89° C | 83% | 988.5 hPa | 0 mm | - | 86 W/m² | - |
| 1777809019 | 3.89° C | 84% | 988.6 hPa | 0 mm | - | 74 W/m² | - |
| 1777808419 | 3.89° C | 85% | 988.6 hPa | 0 mm | - | 67 W/m² | - |
| 1777807819 | 3.33° C | 86% | 988.6 hPa | 0 mm | - | 53 W/m² | - |
| 1777807219 | 3.33° C | 87% | 988.5 hPa | 0 mm | - | 40 W/m² | - |
| 1777806619 | 3.33° C | 87% | 988.4 hPa | 0 mm | - | 33 W/m² | - |
| 1777806084 | 3.33° C | 89% | 988.5 hPa | 0 mm | - | 21 W/m² | - |
| 1777805779 | 3.33° C | 89% | 988.5 hPa | 0 mm | - | 23 W/m² | - |
| 1777805181 | 3.33° C | 89% | 988.4 hPa | 0 mm | - | 25 W/m² | - |
| 1777804579 | 3.33° C | 89% | 988.3 hPa | 0 mm | - | 23 W/m² | - |
| 1777803981 | 2.78° C | 89% | 988.3 hPa | 0 mm | - | 12 W/m² | - |
| 1777803379 | 2.78° C | 90% | 988.3 hPa | 0 mm | - | 11 W/m² | - |
| 1777802781 | 2.78° C | 90% | 988.3 hPa | 0 mm | - | 0 W/m² | - |
| 1777802179 | 2.78° C | 90% | 988.1 hPa | 0 mm | - | 0 W/m² | - |
| 1777801582 | 2.78° C | 90% | 988.2 hPa | 0 mm | - | 0 W/m² | - |
| 1777800981 | 2.78° C | 90% | 988.3 hPa | 0 mm | - | 0 W/m² | - |
| 1777800379 | 2.78° C | 90% | 988.4 hPa | 0 mm | - | 0 W/m² | - |
| 1777799779 | 2.78° C | 90% | 988.3 hPa | 0 mm | - | 0 W/m² | - |
| 1777799179 | 2.78° C | 90% | 988.5 hPa | 0 mm | - | 0 W/m² | - |
| 1777798579 | 2.78° C | 89% | 988.6 hPa | 0 mm | - | 0 W/m² | - |
| 1777798107 | 2.78° C | 89% | 988.6 hPa | 0 mm | - | 0 W/m² | - |
| 1777797808 | 2.78° C | 89% | 988.7 hPa | 0 mm | - | 0 W/m² | - |
| 1777797207 | 2.78° C | 90% | 988.8 hPa | 0 mm | - | 0 W/m² | - |
| 1777796602 | 2.78° C | 90% | 988.9 hPa | 0 mm | - | 0 W/m² | - |
| 1777796132 | 2.78° C | 90% | 988.9 hPa | 0 mm | - | 0 W/m² | - |
* Rain latest hour (hover to see other rain measurements)
** Current wind speed in m/s (hover to see current wind gust speed)